Weather in Verderevo

Russia / Ryazan Oblast     53°52′42″N   39°39′11″E
temp.,
°C
wind,
m/s
gust,
m/s
humid.,
%
clouds,
%
prec.,
mm/h
press.,
hPa
HPBL,
m
27 february, sat
sat2700:00+1w8168952 0.0 1004662
03:000w7168956 0.0 1004608
06:00+1w8169091 0.0 1002708
09:00+1nw9149894 0.3 1003848
12:00−6nnw8138699 0.3 1005717
15:00−7nnw6118799 0.3 1009611
18:00−9nnw499299 0.0 1011234
21:00−11nnw349480 0.0 101364
28 february, sun
sun2800:00−9nnw359682 0.1 1014139
03:00−11nnw349674 0.1 101560
06:00−12nw339682 0.0 101542
09:00−9nw359481 0.1 1015257
12:00−6nw349288 0.1 1015338
15:00−4nnw249393 0.1 1016349
18:00−4n249594 0.0 1016188
21:00−4nne129597 0.1 101923
1 march, mon
mon100:00−6n119795 0.1 102021
03:00−8w119796 0.2 102221
06:00−10nnw129767 0.0 102321
09:00−8w119667 0.0 102421
12:00−4w239275 0.0 1024266
15:00−2wsw359376 0.0 1024358
18:00−5wsw479664 0.0 1022111
21:00−1wsw5109382 0.0 1021513
2 march, tue
tue200:000wsw61291100 0.0 1017537
03:000wsw81495100 0.4 1014581
06:00+1w71397100 0.1 1011682
09:00+1nw81398100 0.4 1010743
12:00+1nw7139379 0.2 1011937
15:00+1nw7138971 0.3 1011893
18:000nw6128855 0.1 1011905
21:00−1nw6138977 0.1 1012775
3 march, wed
wed300:00−3nw6138997 0.0 1013422
03:00−3nw5139493 0.1 1014467
06:00−3nw6129291 0.1 1015547
09:00−3nw6129095 0.1 1016565
12:00−2nw8118965 0.1 1017887
15:00−1nw6108583 0.1 1018905
18:00−1nw51086100 0.0 1017584
21:00−2nw31192100 0.1 1019617